| time (UTC) | temp F | wind direction | speed knots | gust knots | rain 1hr in | rain 24hr in | rain mn in | humidity % | barometer mb |
| 20260831103003 | 82 | 195 | 0.0 | 0.9 | 0.00 | 0.00 | 0.00 | 68 | 1016.3 |
| 20260831102457 | 82 | 198 | 0.9 | 1.7 | 0.00 | 0.00 | 0.00 | 68 | 1016.5 |
| 20260831101952 | 82 | 195 | 2.6 | 2.6 | 0.00 | 0.00 | 0.00 | 68 | 1016.4 |
| 20260831101447 | 82 | 171 | 0.9 | 1.7 | 0.00 | 0.00 | 0.00 | 67 | 1016.2 |
| 20260831100943 | 83 | 203 | 1.7 | 1.7 | 0.00 | 0.00 | 0.00 | 67 | 1016.2 |
| 20260831100439 | 83 | 220 | 0.9 | 0.9 | 0.00 | 0.00 | 0.00 | 67 | 1016.3 |
| 20260831095934 | 83 | 178 | 1.7 | 1.7 | 0.00 | 0.00 | 0.00 | 66 | 1016.5 |
| 20260831095433 | 83 | 183 | 0.0 | 0.9 | 0.00 | 0.00 | 0.00 | 66 | 1016.4 |
| 20260831094928 | 83 | 181 | 1.7 | 1.7 | 0.00 | 0.00 | 0.00 | 65 | 1016.3 |
| 20260831094424 | 83 | 170 | 2.6 | 2.6 | 0.00 | 0.00 | 0.00 | 65 | 1016.3 |
| 20260831093920 | 83 | 200 | 0.9 | 1.7 | 0.00 | 0.00 | 0.00 | 65 | 1016.3 |
| 20260831093414 | 83 | 190 | 0.9 | 1.7 | 0.00 | 0.00 | 0.00 | 64 | 1016.3 |
| 20260831092911 | 84 | 179 | 1.7 | 1.7 | 0.00 | 0.00 | 0.00 | 64 | 1016.0 |
| 20260831092407 | 84 | 183 | 2.6 | 4.3 | 0.00 | 0.00 | 0.00 | 63 | 1016.2 |
| 20260831091902 | 84 | 181 | 0.9 | 1.7 | 0.00 | 0.00 | 0.00 | 62 | 1015.9 |
| 20260831091357 | 84 | 190 | 1.7 | 2.6 | 0.00 | 0.00 | 0.00 | 62 | 1015.9 |
| 20260831090852 | 84 | 188 | 2.6 | 2.6 | 0.00 | 0.00 | 0.00 | 61 | 1015.9 |
| 20260831090348 | 84 | 200 | 3.5 | 5.2 | 0.00 | 0.00 | 0.00 | 61 | 1015.8 |
| 20260831085844 | 84 | 192 | 0.0 | 0.9 | 0.00 | 0.00 | 0.00 | 60 | 1015.8 |
| 20260831085338 | 84 | 173 | 3.5 | 4.3 | 0.00 | 0.00 | 0.00 | 60 | 1016.0 |
| 20260831084833 | 84 | 195 | 0.9 | 0.9 | 0.00 | 0.00 | 0.00 | 60 | 1016.2 |
| 20260831084329 | 85 | 201 | 1.7 | 2.6 | 0.00 | 0.00 | 0.00 | 59 | 1016.0 |
| 20260831083825 | 84 | 173 | 0.9 | 1.7 | 0.00 | 0.00 | 0.00 | 59 | 1016.0 |
| 20260831083321 | 85 | 214 | 0.9 | 1.7 | 0.00 | 0.00 | 0.00 | 59 | 1015.9 |
| 20260831082819 | 85 | 211 | 0.9 | 1.7 | 0.00 | 0.00 | 0.00 | 59 | 1015.9 |
| 20260831082314 | 85 | 187 | 1.7 | 1.7 | 0.00 | 0.00 | 0.00 | 58 | 1015.8 |
| 20260831081810 | 85 | 192 | 0.9 | 1.7 | 0.00 | 0.00 | 0.00 | 58 | 1015.6 |
| 20260831081305 | 85 | 189 | 1.7 | 2.6 | 0.00 | 0.00 | 0.00 | 57 | 1015.8 |
| 20260831080800 | 86 | 176 | 2.6 | 2.6 | 0.00 | 0.00 | 0.00 | 57 | 1015.7 |
| 20260831080255 | 86 | 202 | 0.0 | 0.9 | 0.00 | 0.00 | 0.00 | 56 | 1015.6 |
| 20260831075751 | 86 | 210 | 1.7 | 1.7 | 0.00 | 0.00 | 0.00 | 56 | 1015.6 |
| 20260831075246 | 86 | 181 | 2.6 | 4.3 | 0.00 | 0.00 | 0.00 | 55 | 1015.7 |
| 20260831074746 | 86 | 114 | 2.6 | 2.6 | 0.00 | 0.00 | 0.00 | 54 | 1015.6 |
| 20260831074240 | 86 | 177 | 0.9 | 1.7 | 0.00 | 0.00 | 0.00 | 54 | 1015.6 |
| 20260831073736 | 87 | 240 | 2.6 | 4.3 | 0.00 | 0.00 | 0.00 | 53 | 1015.4 |
| 20260831073234 | 86 | 191 | 0.0 | 0.9 | 0.00 | 0.00 | 0.00 | 54 | 1015.8 |
| 20260831072729 | 86 | 164 | 2.6 | 4.3 | 0.00 | 0.00 | 0.00 | 54 | 1015.5 |
| 20260831072227 | 86 | 166 | 1.7 | 1.7 | 0.00 | 0.00 | 0.00 | 54 | 1015.6 |
| 20260831071726 | 86 | 174 | 0.0 | 0.9 | 0.00 | 0.00 | 0.00 | 55 | 1015.6 |
| 20260831071221 | 86 | 181 | 3.5 | 4.3 | 0.00 | 0.00 | 0.00 | 54 | 1015.5 |
| 20260831070715 | 86 | 183 | 1.7 | 2.6 | 0.00 | 0.00 | 0.00 | 54 | 1015.4 |
| 20260831070214 | 86 | 198 | 0.0 | 0.9 | 0.00 | 0.00 | 0.00 | 54 | 1015.3 |
| 20260831065708 | 86 | 198 | 0.9 | 1.7 | 0.00 | 0.00 | 0.00 | 54 | 1015.8 |
| 20260831065207 | 86 | 199 | 0.9 | 0.9 | 0.00 | 0.00 | 0.00 | 54 | 1015.8 |
| 20260831064702 | 86 | 195 | 0.9 | 0.9 | 0.00 | 0.00 | 0.00 | 54 | 1015.8 |
| 20260831064157 | 87 | 187 | 1.7 | 1.7 | 0.00 | 0.00 | 0.00 | 54 | 1015.5 |
| 20260831063653 | 87 | 181 | 0.9 | 1.7 | 0.00 | 0.00 | 0.00 | 54 | 1015.5 |
| 20260831063148 | 87 | 180 | 3.5 | 5.2 | 0.00 | 0.00 | 0.00 | 53 | 1015.5 |
| 20260831062648 | 87 | 185 | 0.9 | 1.7 | 0.00 | 0.00 | 0.00 | 53 | 1015.6 |
| 20260831062148 | 87 | 186 | 2.6 | 2.6 | 0.00 | 0.00 | 0.00 | 53 | 1015.6 |
| 20260831061646 | 87 | 200 | 1.7 | 1.7 | 0.00 | 0.00 | 0.00 | 53 | 1015.5 |
| 20260831061142 | 87 | 188 | 2.6 | 2.6 | 0.00 | 0.00 | 0.00 | 53 | 1015.7 |
| 20260831060638 | 87 | 185 | 0.0 | 0.0 | 0.00 | 0.00 | 0.00 | 53 | 1015.7 |
| 20260831060138 | 88 | 160 | 0.9 | 1.7 | 0.00 | 0.00 | 0.00 | 53 | 1015.6 |
| 20260831055637 | 88 | 190 | 2.6 | 2.6 | 0.00 | 0.00 | 0.00 | 52 | 1015.5 |
| 20260831055132 | 88 | 213 | 0.9 | 1.7 | 0.00 | 0.00 | 0.00 | 52 | 1015.8 |
| 20260831054632 | 88 | 175 | 2.6 | 2.6 | 0.00 | 0.00 | 0.00 | 52 | 1015.9 |
| 20260831054131 | 88 | 167 | 0.9 | 1.7 | 0.00 | 0.00 | 0.00 | 52 | 1015.8 |
| 20260831053626 | 88 | 206 | 0.9 | 1.7 | 0.00 | 0.00 | 0.00 | 52 | 1015.7 |
| 20260831053126 | 88 | 192 | 0.0 | 0.0 | 0.00 | 0.00 | 0.00 | 52 | 1015.7 |
| 20260831052625 | 88 | 197 | 0.0 | 0.9 | 0.00 | 0.00 | 0.00 | 51 | 1015.5 |
| 20260831052124 | 88 | 199 | 0.9 | 0.9 | 0.00 | 0.00 | 0.00 | 51 | 1015.5 |
| 20260831051622 | 88 | 173 | 2.6 | 4.3 | 0.00 | 0.00 | 0.00 | 51 | 1015.6 |
| 20260831051121 | 88 | 189 | 0.9 | 0.9 | 0.00 | 0.00 | 0.00 | 50 | 1015.5 |
| 20260831050616 | 89 | 199 | 0.9 | 0.9 | 0.00 | 0.00 | 0.00 | 50 | 1015.5 |
| 20260831050115 | 89 | 192 | 1.7 | 1.7 | 0.00 | 0.00 | 0.00 | 49 | 1015.5 |
| 20260831045614 | 89 | 205 | 2.6 | 2.6 | 0.00 | 0.00 | 0.00 | 49 | 1015.4 |
| 20260831045109 | 89 | 190 | 1.7 | 2.6 | 0.00 | 0.00 | 0.00 | 49 | 1015.4 |
| 20260831044605 | 89 | 185 | 0.9 | 1.7 | 0.00 | 0.00 | 0.00 | 49 | 1015.4 |
| 20260831044100 | 89 | 192 | 0.0 | 0.9 | 0.00 | 0.00 | 0.00 | 49 | 1015.4 |
| 20260831043555 | 88 | 191 | 0.0 | 0.9 | 0.00 | 0.00 | 0.00 | 50 | 1015.3 |
| 20260831043051 | 89 | 191 | 0.9 | 0.9 | 0.00 | 0.00 | 0.00 | 49 | 1015.5 |
| 20260831042550 | 89 | 196 | 0.9 | 0.9 | 0.00 | 0.00 | 0.00 | 49 | 1015.3 |
| 20260831042045 | 89 | 199 | 0.9 | 0.9 | 0.00 | 0.00 | 0.00 | 49 | 1015.4 |
| 20260831041539 | 89 | 194 | 0.9 | 0.9 | 0.00 | 0.00 | 0.00 | 49 | 1015.2 |
| 20260831041038 | 89 | 200 | 0.9 | 0.9 | 0.00 | 0.00 | 0.00 | 49 | 1015.4 |
| 20260831040533 | 89 | 190 | 0.9 | 0.9 | 0.00 | 0.00 | 0.00 | 48 | 1015.4 |
| 20260831040028 | 89 | 201 | 0.9 | 1.7 | 0.00 | 0.00 | 0.00 | 48 | 1015.4 |
| 20260831035525 | 89 | 199 | 0.0 | 0.9 | 0.00 | 0.00 | 0.00 | 48 | 1015.3 |
| 20260831035021 | 89 | 180 | 1.7 | 2.6 | 0.00 | 0.00 | 0.00 | 48 | 1015.2 |
| 20260831034515 | 89 | 210 | 2.6 | 2.6 | 0.00 | 0.00 | 0.00 | 48 | 1015.3 |
| 20260831034010 | 89 | 191 | 0.9 | 1.7 | 0.00 | 0.00 | 0.00 | 48 | 1014.9 |
| 20260831033506 | 89 | 194 | 0.9 | 0.9 | 0.00 | 0.00 | 0.00 | 48 | 1015.1 |
| 20260831033002 | 89 | 195 | 0.0 | 0.0 | 0.00 | 0.00 | 0.00 | 48 | 1014.8 |
| 20260831032501 | 89 | 182 | 0.9 | 0.9 | 0.00 | 0.00 | 0.00 | 48 | 1014.9 |
| 20260831031956 | 89 | 190 | 0.9 | 0.9 | 0.00 | 0.00 | 0.00 | 48 | 1015.2 |
| 20260831031456 | 89 | 190 | 0.0 | 0.0 | 0.00 | 0.00 | 0.00 | 48 | 1015.2 |
| 20260831030955 | 89 | 194 | 0.9 | 0.9 | 0.00 | 0.00 | 0.00 | 48 | 1015.2 |
| 20260831030455 | 89 | 197 | 0.0 | 0.0 | 0.00 | 0.00 | 0.00 | 48 | 1015.3 |
| 20260831025952 | 89 | 193 | 0.0 | 0.0 | 0.00 | 0.00 | 0.00 | 48 | 1014.9 |
| 20260831025447 | 90 | 198 | 0.9 | 0.9 | 0.00 | 0.00 | 0.00 | 48 | 1014.9 |
| 20260831024942 | 90 | 193 | 0.0 | 0.0 | 0.00 | 0.00 | 0.00 | 48 | 1014.9 |
| 20260831024442 | 90 | 189 | 0.0 | 0.0 | 0.00 | 0.00 | 0.00 | 48 | 1014.9 |
| 20260831023937 | 90 | 199 | 0.0 | 0.9 | 0.00 | 0.00 | 0.00 | 48 | 1014.8 |
| 20260831023435 | 90 | 196 | 0.0 | 0.0 | 0.00 | 0.00 | 0.00 | 49 | 1014.8 |
| 20260831022930 | 90 | 199 | 0.0 | 0.0 | 0.00 | 0.00 | 0.00 | 49 | 1015.1 |
| 20260831022429 | 90 | 193 | 0.0 | 0.9 | 0.00 | 0.00 | 0.00 | 48 | 1014.6 |
| 20260831021924 | 91 | 189 | 0.9 | 0.9 | 0.00 | 0.00 | 0.00 | 48 | 1014.7 |
| 20260831021423 | 91 | 195 | 0.0 | 0.0 | 0.00 | 0.00 | 0.00 | 48 | 1014.4 |
| 20260831020920 | 91 | 194 | 0.0 | 0.0 | 0.00 | 0.00 | 0.00 | 47 | 1014.5 |
| 20260831020419 | 91 | 196 | 0.0 | 0.0 | 0.00 | 0.00 | 0.00 | 46 | 1014.3 |
| 20260831015914 | 92 | 184 | 0.9 | 0.9 | 0.00 | 0.00 | 0.00 | 46 | 1014.4 |
| 20260831015410 | 92 | 169 | 0.9 | 0.9 | 0.00 | 0.00 | 0.00 | 45 | 1014.4 |
| 20260831014910 | 92 | 168 | 0.0 | 0.0 | 0.00 | 0.00 | 0.00 | 45 | 1014.1 |
| 20260831014404 | 92 | 190 | 0.0 | 0.0 | 0.00 | 0.00 | 0.00 | 45 | 1014.1 |
| 20260831013900 | 93 | 178 | 0.0 | 0.0 | 0.00 | 0.00 | 0.00 | 44 | 1013.8 |
| 20260831013355 | 93 | 148 | 0.9 | 0.9 | 0.00 | 0.00 | 0.00 | 44 | 1013.9 |
| 20260831012850 | 93 | 178 | 0.9 | 0.9 | 0.00 | 0.00 | 0.00 | 43 | 1013.7 |
| 20260831012346 | 94 | 137 | 1.7 | 1.7 | 0.00 | 0.00 | 0.00 | 42 | 1013.9 |
| 20260831011845 | 94 | 168 | 0.9 | 0.9 | 0.00 | 0.00 | 0.00 | 42 | 1013.8 |
| 20260831011340 | 94 | 159 | 1.7 | 1.7 | 0.00 | 0.00 | 0.00 | 42 | 1013.6 |
| 20260831010831 | 94 | 148 | 0.9 | 0.9 | 0.00 | 0.00 | 0.00 | 42 | 1013.7 |
| 20260831010330 | 94 | 184 | 0.0 | 0.0 | 0.00 | 0.00 | 0.00 | 42 | 1013.7 |
| 20260831005826 | 95 | 182 | 0.0 | 0.9 | 0.00 | 0.00 | 0.00 | 41 | 1013.6 |
| 20260831005322 | 95 | 167 | 1.7 | 1.7 | 0.00 | 0.00 | 0.00 | 41 | 1013.7 |
| 20260831004816 | 95 | 144 | 0.9 | 1.7 | 0.00 | 0.00 | 0.00 | 40 | 1013.7 |
| 20260831004312 | 95 | 169 | 1.7 | 2.6 | 0.00 | 0.00 | 0.00 | 40 | 1013.4 |
| 20260831003807 | 96 | 175 | 0.9 | 1.7 | 0.00 | 0.00 | 0.00 | 40 | 1013.5 |
| 20260831003304 | 96 | 185 | 0.0 | 0.9 | 0.00 | 0.00 | 0.00 | 40 | 1013.6 |
| 20260831002803 | 96 | 181 | 0.0 | 0.0 | 0.00 | 0.00 | 0.00 | 39 | 1013.7 |
| 20260831002305 | 96 | 169 | 0.9 | 0.9 | 0.00 | 0.00 | 0.00 | 39 | 1013.5 |
| 20260831001758 | 96 | 170 | 0.9 | 0.9 | 0.00 | 0.00 | 0.00 | 39 | 1013.7 |
| 20260831001253 | 97 | 177 | 2.6 | 4.3 | 0.00 | 0.00 | 0.00 | 39 | 1013.6 |
| 20260831000745 | 97 | 154 | 1.7 | 1.7 | 0.00 | 0.00 | 0.00 | 38 | 1013.7 |
| 20260831000244 | 98 | 131 | 1.7 | 1.7 | 0.00 | 0.00 | 0.00 | 38 | 1013.7 |
| 20260830235743 | 98 | 126 | 1.7 | 1.7 | 0.00 | 0.00 | 0.00 | 38 | 1013.9 |
| 20260830235238 | 98 | 185 | 1.7 | 1.7 | 0.00 | 0.00 | 0.00 | 38 | 1013.8 |
| 20260830234733 | 98 | 182 | 1.7 | 2.6 | 0.00 | 0.00 | 0.00 | 37 | 1013.9 |
| 20260830234229 | 98 | 124 | 1.7 | 2.6 | 0.00 | 0.00 | 0.00 | 37 | 1013.8 |
| 20260830233724 | 99 | 143 | 1.7 | 1.7 | 0.00 | 0.00 | 0.00 | 37 | 1013.8 |
| 20260830233220 | 99 | 141 | 2.6 | 4.3 | 0.00 | 0.00 | 0.00 | 37 | 1013.8 |
| 20260830232715 | 98 | 220 | 2.6 | 6.1 | 0.00 | 0.00 | 0.00 | 37 | 1013.7 |
| 20260830232211 | 98 | 56 | 0.9 | 0.9 | 0.00 | 0.00 | 0.00 | 37 | 1013.8 |
| 20260830231708 | 98 | 132 | 0.9 | 1.7 | 0.00 | 0.00 | 0.00 | 38 | 1013.9 |
| 20260830231207 | 99 | 92 | 2.6 | 4.3 | 0.00 | 0.00 | 0.00 | 37 | 1013.9 |
| 20260830230702 | 100 | 108 | 1.7 | 4.3 | 0.00 | 0.00 | 0.00 | 36 | 1013.8 |
| 20260830230157 | 100 | 201 | 2.6 | 2.6 | 0.00 | 0.00 | 0.00 | 34 | 1013.7 |
| 20260830225651 | 100 | 200 | 0.9 | 1.7 | 0.00 | 0.00 | 0.00 | 34 | 1013.7 |
| 20260830225146 | 101 | 208 | 3.5 | 4.3 | 0.00 | 0.00 | 0.00 | 34 | 1014.0 |
| 20260830224645 | 100 | 53 | 0.9 | 2.6 | 0.00 | 0.00 | 0.00 | 36 | 1014.0 |
| 20260830224141 | 101 | 128 | 2.6 | 2.6 | 0.00 | 0.00 | 0.00 | 35 | 1014.0 |
| 20260830223638 | 99 | 84 | 0.9 | 1.7 | 0.00 | 0.00 | 0.00 | 35 | 1013.9 |
| 20260830223137 | 99 | 205 | 1.7 | 1.7 | 0.00 | 0.00 | 0.00 | 35 | 1014.0 |
| 20260830222632 | 99 | 142 | 0.9 | 1.7 | 0.00 | 0.00 | 0.00 | 36 | 1014.1 |
| 20260830222128 | 99 | 98 | 2.6 | 4.3 | 0.00 | 0.00 | 0.00 | 34 | 1014.3 |
| 20260830221624 | 101 | 192 | 3.5 | 4.3 | 0.00 | 0.00 | 0.00 | 34 | 1014.0 |
| 20260830221120 | 102 | 202 | 1.7 | 2.6 | 0.00 | 0.00 | 0.00 | 34 | 1014.1 |
| 20260830220615 | 102 | 107 | 0.9 | 1.7 | 0.00 | 0.00 | 0.00 | 33 | 1014.1 |
| 20260830220114 | 101 | 201 | 3.5 | 4.3 | 0.00 | 0.00 | 0.00 | 34 | 1014.0 |
| 20260830215613 | 101 | 204 | 0.0 | 0.9 | 0.00 | 0.00 | 0.00 | 33 | 1014.1 |
| 20260830215108 | 100 | 168 | 2.6 | 2.6 | 0.00 | 0.00 | 0.00 | 34 | 1014.0 |
| 20260830214603 | 100 | 182 | 4.3 | 7.0 | 0.00 | 0.00 | 0.00 | 34 | 1014.1 |
| 20260830214058 | 99 | 209 | 3.5 | 4.3 | 0.00 | 0.00 | 0.00 | 34 | 1014.4 |
| 20260830213557 | 100 | 207 | 0.0 | 0.0 | 0.00 | 0.00 | 0.00 | 33 | 1014.3 |
| 20260830213053 | 99 | 207 | 2.6 | 2.6 | 0.00 | 0.00 | 0.00 | 34 | 1014.4 |
| 20260830212549 | 99 | 176 | 2.6 | 4.3 | 0.00 | 0.00 | 0.00 | 34 | 1014.7 |
| 20260830212048 | 99 | 194 | 1.7 | 1.7 | 0.00 | 0.00 | 0.00 | 34 | 1014.5 |
| 20260830211543 | 98 | 200 | 4.3 | 5.2 | 0.00 | 0.00 | 0.00 | 35 | 1014.5 |
| 20260830211038 | 99 | 214 | 1.7 | 2.6 | 0.00 | 0.00 | 0.00 | 35 | 1014.6 |
| 20260830210533 | 100 | 178 | 4.3 | 5.2 | 0.00 | 0.00 | 0.00 | 35 | 1014.5 |
| 20260830210032 | 100 | 200 | 3.5 | 4.3 | 0.00 | 0.00 | 0.00 | 35 | 1014.8 |
| 20260830205530 | 101 | 179 | 2.6 | 2.6 | 0.00 | 0.00 | 0.00 | 35 | 1014.7 |
| 20260830205026 | 99 | 48 | 2.6 | 2.6 | 0.00 | 0.00 | 0.00 | 37 | 1015.0 |
| 20260830204525 | 100 | 205 | 0.0 | 0.9 | 0.00 | 0.00 | 0.00 | 36 | 1014.8 |
| 20260830204024 | 101 | 86 | 3.5 | 5.2 | 0.00 | 0.00 | 0.00 | 35 | 1014.8 |
| 20260830203520 | 100 | 218 | 1.7 | 1.7 | 0.00 | 0.00 | 0.00 | 37 | 1015.0 |
| 20260830203015 | 100 | 171 | 4.3 | 6.1 | 0.00 | 0.00 | 0.00 | 37 | 1015.2 |
| 20260830202509 | 101 | 175 | 2.6 | 4.3 | 0.00 | 0.00 | 0.00 | 36 | 1015.1 |
| 20260830202006 | 100 | 193 | 0.9 | 0.9 | 0.00 | 0.00 | 0.00 | 36 | 1015.1 |
| 20260830201504 | 102 | 180 | 3.5 | 6.1 | 0.00 | 0.00 | 0.00 | 34 | 1015.4 |
| 20260830201000 | 101 | 258 | 0.9 | 0.9 | 0.00 | 0.00 | 0.00 | 36 | 1015.3 |
| 20260830200500 | 101 | 179 | 4.3 | 6.1 | 0.00 | 0.00 | 0.00 | 36 | 1015.5 |
| 20260830195959 | 99 | 140 | 0.9 | 1.7 | 0.00 | 0.00 | 0.00 | 37 | 1015.5 |
| 20260830195455 | 99 | 126 | 0.9 | 0.9 | 0.00 | 0.00 | 0.00 | 37 | 1015.9 |
| 20260830194953 | 100 | 219 | 1.7 | 1.7 | 0.00 | 0.00 | 0.00 | 37 | 1015.9 |
| 20260830194453 | 102 | 126 | 3.5 | 4.3 | 0.00 | 0.00 | 0.00 | 35 | 1015.7 |
| 20260830193948 | 101 | 200 | 4.3 | 5.2 | 0.00 | 0.00 | 0.00 | 35 | 1015.7 |
| 20260830193446 | 101 | 200 | 1.7 | 1.7 | 0.00 | 0.00 | 0.00 | 36 | 1016.0 |
| 20260830192942 | 100 | 176 | 7.8 | 9.6 | 0.00 | 0.00 | 0.00 | 38 | 1015.9 |
| 20260830192437 | 101 | 236 | 3.5 | 5.2 | 0.00 | 0.00 | 0.00 | 37 | 1016.2 |
| 20260830191932 | 100 | 108 | 2.6 | 4.3 | 0.00 | 0.00 | 0.00 | 38 | 1016.1 |
| 20260830191432 | 99 | 192 | 0.9 | 1.7 | 0.00 | 0.00 | 0.00 | 39 | 1016.0 |
| 20260830190928 | 99 | 107 | 1.7 | 2.6 | 0.00 | 0.00 | 0.00 | 39 | 1016.2 |
| 20260830190423 | 100 | 213 | 2.6 | 5.2 | 0.00 | 0.00 | 0.00 | 38 | 1016.2 |
| 20260830185922 | 99 | 234 | 5.2 | 6.1 | 0.00 | 0.00 | 0.00 | 38 | 1016.3 |
| 20260830185417 | 101 | 204 | 3.5 | 4.3 | 0.00 | 0.00 | 0.00 | 38 | 1016.3 |
| 20260830184913 | 100 | 152 | 1.7 | 2.6 | 0.00 | 0.00 | 0.00 | 38 | 1016.6 |
| 20260830184411 | 100 | 180 | 6.1 | 11.3 | 0.00 | 0.00 | 0.00 | 38 | 1016.6 |
| 20260830183911 | 101 | 213 | 3.5 | 5.2 | 0.00 | 0.00 | 0.00 | 39 | 1016.7 |
| 20260830183406 | 98 | 263 | 1.7 | 2.6 | 0.00 | 0.00 | 0.00 | 41 | 1016.5 |
| 20260830182902 | 98 | 181 | 10.4 | 15.6 | 0.00 | 0.00 | 0.00 | 39 | 1016.8 |
| 20260830182357 | 98 | 164 | 5.2 | 7.0 | 0.00 | 0.00 | 0.00 | 40 | 1016.7 |
| 20260830181853 | 99 | 195 | 3.5 | 5.2 | 0.00 | 0.00 | 0.00 | 41 | 1016.7 |
| 20260830181349 | 100 | 185 | 6.1 | 7.0 | 0.00 | 0.00 | 0.00 | 40 | 1016.8 |
| 20260830180848 | 99 | 94 | 2.6 | 2.6 | 0.00 | 0.00 | 0.00 | 40 | 1017.1 |
| 20260830180343 | 99 | 185 | 3.5 | 5.2 | 0.00 | 0.00 | 0.00 | 40 | 1017.1 |
| 20260830175842 | 99 | 216 | 0.9 | 0.9 | 0.00 | 0.00 | 0.00 | 41 | 1016.9 |
| 20260830175337 | 100 | 208 | 1.7 | 2.6 | 0.00 | 0.00 | 0.00 | 41 | 1017.2 |
| 20260830174832 | 99 | 208 | 1.7 | 2.6 | 0.00 | 0.00 | 0.00 | 43 | 1017.2 |
| 20260830174327 | 99 | 101 | 3.5 | 4.3 | 0.00 | 0.00 | 0.00 | 42 | 1017.3 |
| 20260830173827 | 98 | 194 | 0.9 | 1.7 | 0.00 | 0.00 | 0.00 | 43 | 1017.3 |
| 20260830173323 | 97 | 168 | 4.3 | 5.2 | 0.00 | 0.00 | 0.00 | 44 | 1017.5 |
| 20260830172819 | 96 | 186 | 4.3 | 6.1 | 0.00 | 0.00 | 0.00 | 44 | 1017.7 |
| 20260830172315 | 97 | 204 | 4.3 | 6.1 | 0.00 | 0.00 | 0.00 | 46 | 1017.6 |
| 20260830171811 | 96 | 169 | 4.3 | 7.0 | 0.00 | 0.00 | 0.00 | 45 | 1017.8 |
| 20260830171306 | 96 | 180 | 1.7 | 1.7 | 0.00 | 0.00 | 0.00 | 47 | 1017.8 |
| 20260830170800 | 96 | 216 | 4.3 | 5.2 | 0.00 | 0.00 | 0.00 | 46 | 1017.7 |
| 20260830170300 | 96 | 207 | 3.5 | 5.2 | 0.00 | 0.00 | 0.00 | 46 | 1017.9 |
| 20260830165759 | 96 | 185 | 5.2 | 6.1 | 0.00 | 0.00 | 0.00 | 47 | 1017.9 |
| 20260830165255 | 95 | 178 | 4.3 | 5.2 | 0.00 | 0.00 | 0.00 | 48 | 1018.0 |
| 20260830164751 | 95 | 170 | 3.5 | 5.2 | 0.00 | 0.00 | 0.00 | 50 | 1018.1 |
| 20260830164247 | 95 | 201 | 2.6 | 4.3 | 0.00 | 0.00 | 0.00 | 49 | 1018.1 |
| 20260830163743 | 95 | 289 | 0.0 | 0.9 | 0.00 | 0.00 | 0.00 | 49 | 1018.2 |
| 20260830163238 | 95 | 190 | 3.5 | 5.2 | 0.00 | 0.00 | 0.00 | 50 | 1018.4 |
| 20260830162732 | 94 | 213 | 0.9 | 1.7 | 0.00 | 0.00 | 0.00 | 52 | 1018.1 |
| 20260830162229 | 94 | 182 | 2.6 | 4.3 | 0.00 | 0.00 | 0.00 | 52 | 1018.3 |
| 20260830161719 | 94 | 43 | 1.7 | 2.6 | 0.00 | 0.00 | 0.00 | 53 | 1018.3 |
| 20260830161218 | 93 | 269 | 0.9 | 1.7 | 0.00 | 0.00 | 0.00 | 53 | 1018.2 |
| 20260830160714 | 93 | 152 | 2.6 | 6.1 | 0.00 | 0.00 | 0.00 | 53 | 1018.3 |
| 20260830160209 | 93 | 209 | 2.6 | 2.6 | 0.00 | 0.00 | 0.00 | 53 | 1018.3 |
| 20260830155706 | 93 | 172 | 0.0 | 0.9 | 0.00 | 0.00 | 0.00 | 53 | 1018.2 |
| 20260830155201 | 93 | 149 | 1.7 | 1.7 | 0.00 | 0.00 | 0.00 | 54 | 1018.2 |
| 20260830154656 | 92 | 151 | 3.5 | 5.2 | 0.00 | 0.00 | 0.00 | 55 | 1018.3 |
| 20260830154152 | 91 | 165 | 2.6 | 4.3 | 0.00 | 0.00 | 0.00 | 55 | 1017.9 |
| 20260830153648 | 92 | 205 | 2.6 | 2.6 | 0.00 | 0.00 | 0.00 | 55 | 1018.1 |
| 20260830153148 | 91 | 203 | 1.7 | 2.6 | 0.00 | 0.00 | 0.00 | 56 | 1018.3 |
| 20260830152647 | 92 | 196 | 0.9 | 0.9 | 0.00 | 0.00 | 0.00 | 56 | 1018.2 |
| 20260830152146 | 91 | 194 | 2.6 | 2.6 | 0.00 | 0.00 | 0.00 | 56 | 1018.2 |
| 20260830151642 | 90 | 183 | 1.7 | 1.7 | 0.00 | 0.00 | 0.00 | 58 | 1018.3 |
| 20260830151141 | 89 | 185 | 4.3 | 4.3 | 0.00 | 0.00 | 0.00 | 59 | 1018.2 |
| 20260830150642 | 90 | 203 | 3.5 | 6.1 | 0.00 | 0.00 | 0.00 | 59 | 1018.2 |
| 20260830150136 | 89 | 280 | 1.7 | 1.7 | 0.00 | 0.00 | 0.00 | 61 | 1018.3 |
| 20260830145636 | 89 | 181 | 1.7 | 2.6 | 0.00 | 0.00 | 0.00 | 60 | 1017.9 |
| 20260830145131 | 88 | 154 | 3.5 | 4.3 | 0.00 | 0.00 | 0.00 | 62 | 1018.3 |
| 20260830144626 | 89 | 176 | 4.3 | 4.3 | 0.00 | 0.00 | 0.00 | 62 | 1018.3 |
| 20260830144122 | 88 | 162 | 2.6 | 4.3 | 0.00 | 0.00 | 0.00 | 63 | 1018.2 |
| 20260830143618 | 87 | 188 | 0.9 | 0.9 | 0.00 | 0.00 | 0.00 | 64 | 1018.3 |
| 20260830143116 | 86 | 188 | 0.0 | 0.0 | 0.00 | 0.00 | 0.00 | 65 | 1018.1 |
| 20260830142612 | 86 | 195 | 0.9 | 0.9 | 0.00 | 0.00 | 0.00 | 66 | 1018.4 |
| 20260830142106 | 86 | 157 | 2.6 | 2.6 | 0.00 | 0.00 | 0.00 | 65 | 1018.6 |
| 20260830141601 | 86 | 182 | 0.9 | 1.7 | 0.00 | 0.00 | 0.00 | 67 | 1018.4 |
| 20260830141056 | 86 | 170 | 2.6 | 2.6 | 0.00 | 0.00 | 0.00 | 67 | 1018.2 |
| 20260830140551 | 85 | 192 | 0.9 | 0.9 | 0.00 | 0.00 | 0.00 | 68 | 1018.2 |
| 20260830140047 | 84 | 198 | 0.9 | 0.9 | 0.00 | 0.00 | 0.00 | 69 | 1018.7 |
| 20260830135541 | 84 | 176 | 2.6 | 2.6 | 0.00 | 0.00 | 0.00 | 70 | 1018.2 |
| 20260830135037 | 82 | 197 | 0.9 | 0.9 | 0.00 | 0.00 | 0.00 | 71 | 1018.2 |
| 20260830134533 | 82 | 189 | 2.6 | 2.6 | 0.00 | 0.00 | 0.00 | 72 | 1018.5 |
| 20260830134028 | 82 | 186 | 0.0 | 0.0 | 0.00 | 0.00 | 0.00 | 72 | 1018.3 |
| 20260830133523 | 82 | 182 | 2.6 | 2.6 | 0.00 | 0.00 | 0.00 | 72 | 1018.2 |
| 20260830133018 | 81 | 177 | 0.9 | 0.9 | 0.00 | 0.00 | 0.00 | 73 | 1018.2 |
| 20260830132514 | 81 | 161 | 0.9 | 0.9 | 0.00 | 0.00 | 0.00 | 74 | 1018.3 |
| 20260830132014 | 80 | 195 | 1.7 | 1.7 | 0.00 | 0.00 | 0.00 | 74 | 1018.0 |
| 20260830131513 | 80 | 187 | 1.7 | 1.7 | 0.00 | 0.00 | 0.00 | 74 | 1018.1 |
| 20260830131008 | 80 | 168 | 0.9 | 0.9 | 0.00 | 0.00 | 0.00 | 74 | 1018.0 |
| 20260830130503 | 80 | 164 | 0.9 | 0.9 | 0.00 | 0.00 | 0.00 | 74 | 1018.0 |
| 20260830130003 | 80 | 179 | 0.9 | 0.9 | 0.00 | 0.00 | 0.00 | 74 | 1017.9 |
| 20260830125458 | 80 | 201 | 0.0 | 0.9 | 0.00 | 0.00 | 0.00 | 74 | 1017.7 |
| 20260830124956 | 79 | 190 | 0.0 | 0.9 | 0.00 | 0.00 | 0.00 | 74 | 1017.7 |
| 20260830124451 | 79 | 198 | 0.0 | 0.9 | 0.00 | 0.00 | 0.00 | 74 | 1017.6 |
| 20260830123947 | 79 | 193 | 0.0 | 0.9 | 0.00 | 0.00 | 0.00 | 74 | 1017.4 |
| 20260830123444 | 78 | 190 | 0.0 | 0.0 | 0.00 | 0.00 | 0.00 | 74 | 1017.7 |
| 20260830122942 | 78 | 193 | 0.0 | 0.0 | 0.00 | 0.00 | 0.00 | 74 | 1017.5 |
| 20260830122441 | 78 | 199 | 0.0 | 0.9 | 0.00 | 0.00 | 0.00 | 74 | 1017.5 |
| 20260830121936 | 78 | 189 | 0.0 | 0.0 | 0.00 | 0.00 | 0.00 | 74 | 1017.6 |
| 20260830121431 | 78 | 196 | 0.0 | 0.9 | 0.00 | 0.00 | 0.00 | 73 | 1017.6 |
| 20260830120926 | 78 | 177 | 0.0 | 0.9 | 0.00 | 0.00 | 0.00 | 73 | 1017.6 |
| 20260830120422 | 78 | 192 | 0.0 | 0.0 | 0.00 | 0.00 | 0.00 | 73 | 1017.1 |
| 20260830115918 | 78 | 195 | 0.0 | 0.0 | 0.00 | 0.00 | 0.00 | 72 | 1017.3 |
| 20260830115414 | 78 | 195 | 0.0 | 0.0 | 0.00 | 0.00 | 0.00 | 72 | 1017.2 |
| 20260830114909 | 78 | 197 | 0.0 | 0.0 | 0.00 | 0.00 | 0.00 | 71 | 1017.2 |
| 20260830114406 | 79 | 189 | 0.0 | 0.0 | 0.00 | 0.00 | 0.00 | 71 | 1016.9 |
| 20260830113905 | 79 | 194 | 0.0 | 0.9 | 0.00 | 0.00 | 0.00 | 71 | 1016.6 |
| 20260830113400 | 79 | 198 | 0.0 | 0.0 | 0.00 | 0.00 | 0.00 | 70 | 1016.9 |
| 20260830112856 | 79 | 196 | 0.0 | 0.0 | 0.00 | 0.00 | 0.00 | 70 | 1016.8 |
| 20260830112352 | 79 | 200 | 0.0 | 0.9 | 0.00 | 0.00 | 0.00 | 70 | 1016.6 |
| 20260830111848 | 79 | 185 | 0.0 | 0.9 | 0.00 | 0.00 | 0.00 | 69 | 1016.7 |
| 20260830111343 | 79 | 193 | 0.0 | 0.9 | 0.00 | 0.00 | 0.00 | 69 | 1016.6 |
| 20260830110843 | 79 | 191 | 0.0 | 0.9 | 0.00 | 0.00 | 0.00 | 68 | 1016.5 |
| 20260830110340 | 79 | 194 | 0.9 | 0.9 | 0.00 | 0.00 | 0.00 | 68 | 1016.6 |
| 20260830105838 | 80 | 187 | 0.9 | 0.9 | 0.00 | 0.00 | 0.00 | 67 | 1016.6 |
| 20260830105335 | 80 | 168 | 0.0 | 0.9 | 0.00 | 0.00 | 0.00 | 67 | 1016.2 |
| 20260830104831 | 80 | 198 | 0.0 | 0.9 | 0.00 | 0.00 | 0.00 | 66 | 1016.3 |
| 20260830104328 | 80 | 186 | 0.9 | 0.9 | 0.00 | 0.00 | 0.00 | 66 | 1016.4 |
| 20260830103826 | 80 | 195 | 0.9 | 0.9 | 0.00 | 0.00 | 0.00 | 65 | 1016.6 |